Location: Barcelona
(41.3830°N, 2.1830°E)
Time: 21:14:54
(UTC+01:00)

ISS - Pass Details

Date: 03 March 2021
Orbit: 417 x 422 km, 51.6° (Epoch: 26 February)

Event Time Altitude Azimuth Distance (km) Brightness Sun altitude
Exits shadow 06:28:23 - 320° (NW) 1,725 -1.0 -11.0°
Reaches altitude 10° 06:29:12 10° 330° (NNW) 1,499 -1.2 -10.8°
Maximum altitude 06:31:17 15° 8° (N) 1,217 -1.3 -10.4°
Drops below altitude 10° 06:33:22 10° 46° (NE) 1,498 -0.2 -10.0°
Sets 06:36:07 0° 71° (ENE) 2,362 1.6 -9.5°
